Date,TemperatureHighF,TemperatureAvgF,TemperatureLowF,DewpointHighF,DewpointAvgF,DewpointLowF,HumidityHigh,HumidityAvg,HumidityLow,PressureMaxIn,PressureMinIn,WindSpeedMaxMPH,WindSpeedAvgMPH,GustSpeedMaxMPH,PrecipitationSumIn
2013-1-1,32.3,25.7,12.0,28.0,17.5,4.0,86,69,51,29.80,29.56,40,14,0,0.04
2013-1-2,17.5,10.7,4.5,8.0,3.0,0.0,75,66,56,29.98,29.76,43,17,0,0.00
2013-1-3,19.3,10.8,2.8,11.0,4.1,0.0,76,67,57,30.07,29.94,24,10,0,0.00
2013-1-4,34.7,27.0,14.3,28.0,20.4,8.0,86,73,67,29.94,29.71,21,8,0,0.00
2013-1-5,34.5,28.5,16.5,29.0,19.4,8.0,82,66,47,30.30,29.70,41,11,0,0.05
2013-1-6,31.9,24.1,14.4,31.0,21.2,8.0,96,86,67,30.28,29.92,15,4,0,0.00
2013-1-7,23.9,18.7,12.1,23.0,14.1,8.0,90,79,65,30.45,30.00,20,4,0,0.01
2013-1-8,40.8,36.7,19.1,33.0,28.8,16.0,82,72,61,30.40,30.20,33,13,0,0.01
2013-1-9,41.7,34.5,28.0,38.0,29.2,24.0,95,80,69,30.44,30.15,16,3,0,0.00
2013-1-10,41.7,33.7,31.0,38.0,25.0,21.0,84,69,67,30.51,30.15,2071,9,34,0.00
2013-1-11,35.9,31.7,26.2,28.0,22.6,18.0,81,67,51,30.55,30.26,21,4,21,0.22
2013-1-12,43.2,38.7,33.6,40.0,33.3,26.0,90,80,71,30.26,30.09,11,3,11,0.00
2013-1-13,50.3,44.9,41.2,49.0,43.9,39.0,99,97,90,30.13,29.92,21,3,22,0.00
2013-1-14,53.7,47.6,38.1,51.0,43.5,28.0,99,86,63,30.16,29.81,31,9,35,0.02
2013-1-15,39.1,34.3,29.8,29.0,25.4,21.0,78,68,57,30.29,30.14,23,4,23,0.00
2013-1-16,37.4,33.3,29.7,36.0,29.2,18.0,99,84,58,30.27,29.74,19,6,19,0.33
2013-1-17,40.1,32.1,15.1,40.0,25.6,4.0,98,76,49,30.10,29.69,31,9,31,0.04
2013-1-18,17.9,12.9,7.7,8.0,3.0,-6.0,77,59,44,30.36,30.08,30,6,32,0.00
2013-1-19,37.7,30.4,17.1,35.0,25.1,4.0,99,80,45,30.35,29.91,27,5,27,0.13
2013-1-20,48.7,41.2,24.7,41.0,31.9,11.0,95,70,43,29.91,29.41,39,10,43,0.09
2013-1-21,24.7,19.0,13.8,16.0,4.7,0.0,83,50,36,30.00,29.74,41,11,41,0.21
2013-1-22,17.8,13.0,8.0,16.0,5.3,-6.0,88,66,49,29.92,29.75,30,8,32,0.00
2013-1-23,10.0,4.0,-1.0,0.0,-6.0,-13.0,69,55,46,30.00,29.90,34,14,35,0.00
2013-1-24,11.3,4.0,-2.6,4.0,-6.7,-13.0,76,58,43,30.00,29.79,37,16,39,0.00
2013-1-25,19.8,11.7,3.3,8.0,2.0,-6.0,72,60,44,30.10,29.96,35,14,36,0.00
2013-1-26,20.3,14.2,9.8,8.0,5.8,0.0,75,65,51,30.06,29.91,30,5,32,0.00
2013-1-27,23.7,15.7,8.9,14.0,6.5,0.0,72,62,52,30.34,30.02,35,15,37,0.00
2013-1-28,26.7,19.9,11.0,21.0,7.2,0.0,82,55,33,30.37,30.08,23,5,23,0.00
2013-1-29,36.2,29.2,20.6,28.0,21.2,14.0,88,70,57,30.24,30.06,12,2,12,0.00
2013-1-30,55.9,45.9,34.9,55.0,44.2,28.0,98,94,76,30.19,29.47,41,9,42,0.25
2013-1-31,56.2,46.9,33.5,54.5,40.7,18.0,97,79,50,29.49,28.84,49,14,49,0.65
2013-2-1,33.6,25.6,15.8,18.0,11.5,8.0,72,52,41,29.96,29.35,40,13,40,0.00
2013-2-2,25.5,18.8,11.2,21.0,8.8,0.0,82,62,41,30.19,29.95,27,6,30,0.00
2013-2-3,28.0,24.0,21.3,24.0,20.5,18.0,94,84,74,30.07,29.64,21,6,21,0.00
2013-2-4,28.0,22.0,15.3,21.0,11.9,-6.0,89,63,38,29.78,29.52,38,14,39,0.00
2013-2-5,24.5,16.5,11.4,8.0,1.8,-6.0,62,47,37,30.03,29.77,34,8,34,0.00
2013-2-6,33.9,24.7,16.8,33.0,16.7,4.0,95,69,43,30.20,29.91,31,7,31,0.06
2013-2-7,19.4,12.1,7.5,11.0,1.7,-6.0,75,57,44,30.61,30.19,32,9,32,0.00
2013-2-8,20.3,13.0,4.6,18.0,8.9,-6.0,93,78,52,30.61,29.90,36,11,37,0.75
2013-2-9,19.0,16.3,12.8,18.0,15.0,11.0,94,92,89,29.99,29.59,48,14,50,29.07
2013-2-10,32.2,23.7,16.8,26.0,16.0,8.0,92,72,41,30.34,29.98,30,6,30,0.00
2013-2-11,44.6,31.5,17.4,44.0,26.6,4.0,99,81,44,30.33,29.56,22,4,23,0.45
2013-2-12,42.0,38.8,34.9,42.0,34.1,29.0,100,83,68,29.72,29.47,26,11,26,0.05
2013-2-13,42.6,36.9,32.5,31.0,28.4,26.0,86,70,54,29.79,29.69,20,6,20,0.00
2013-2-14,40.5,33.9,27.8,29.0,24.2,18.0,85,67,49,30.01,29.71,16,2,17,0.00
2013-2-15,44.0,38.3,27.5,39.0,33.5,23.0,89,82,67,30.02,29.94,24,5,25,0.00
2013-2-16,42.2,34.9,29.3,39.0,33.6,29.0,100,94,85,29.94,29.74,16,3,19,0.00
2013-2-17,29.2,24.8,20.3,29.0,22.9,14.0,98,92,74,29.74,28.91,54,13,54,5.18
2013-2-18,28.7,22.5,16.8,14.0,9.5,8.0,76,54,43,29.86,29.19,51,23,51,1.91
2013-2-19,41.0,32.0,21.9,40.0,19.5,4.0,97,59,40,30.07,29.74,38,8,38,0.07
2013-2-20,45.2,38.0,30.0,45.0,31.7,21.0,99,78,59,29.74,29.38,33,11,33,0.52
2013-2-21,34.7,29.3,25.0,32.0,22.4,16.0,94,73,62,30.07,29.55,32,8,32,0.00
2013-2-22,41.7,33.1,27.5,29.0,24.3,21.0,80,69,48,30.38,30.07,22,3,22,0.00
2013-2-23,32.8,30.2,27.0,28.0,25.9,23.0,90,84,72,30.37,30.07,18,6,18,0.00
2013-2-24,33.2,31.2,28.8,31.0,28.1,24.0,97,87,80,30.08,29.80,22,8,24,0.00
2013-2-25,44.2,29.9,23.8,26.0,21.4,14.0,84,69,30,30.23,29.87,17,2,17,0.00
2013-2-26,48.2,32.8,24.6,31.0,23.8,16.0,87,68,42,30.37,30.23,12,3,12,0.00
2013-2-27,37.9,34.0,27.8,35.0,30.3,26.0,99,85,72,30.30,29.78,34,11,37,0.15
2013-2-28,40.1,37.3,33.7,40.0,37.4,35.0,100,99,98,29.80,29.50,30,12,30,0.66
2013-3-1,35.7,34.1,32.4,36.0,34.1,32.0,100,98,96,29.62,29.49,23,4,23,0.08
2013-3-2,38.8,36.0,33.7,37.0,35.4,33.0,100,97,92,29.60,29.55,20,5,20,0.07
2013-3-3,47.4,39.4,36.3,44.0,38.0,35.0,100,94,76,29.58,29.45,19,5,19,0.04
2013-3-4,37.5,35.4,33.6,37.0,34.2,32.0,100,95,91,29.64,29.41,23,8,24,0.20
2013-3-5,44.1,38.5,36.0,38.0,36.4,35.0,99,91,77,30.14,29.64,20,7,20,0.01
2013-3-6,37.5,35.4,33.8,36.0,31.1,26.0,95,84,72,30.29,30.14,30,15,30,0.06
2013-3-7,37.9,34.8,33.1,29.0,27.7,26.0,78,73,64,30.26,30.07,41,17,41,0.04
2013-3-8,43.9,36.1,31.3,28.0,27.0,24.0,81,69,50,30.21,30.05,34,13,34,0.00
2013-3-9,40.9,33.6,29.2,29.0,26.6,24.0,83,75,60,30.40,30.19,26,9,26,0.00
2013-3-10,35.0,31.7,28.4,31.0,27.2,24.0,87,82,75,30.44,30.31,11,4,15,0.00
2013-3-11,43.3,39.4,34.4,40.0,35.9,31.0,96,86,77,30.33,30.20,17,5,17,0.00
2013-3-12,50.5,45.9,40.7,48.0,43.7,39.0,99,92,82,30.22,29.88,28,8,30,0.30
2013-3-13,50.6,49.3,47.9,50.0,48.9,48.0,99,99,97,29.88,29.71,31,11,31,1.50
2013-3-14,40.8,40.6,40.6,29.0,29.0,29.0,62,62,62,29.69,29.69,6,6,6,0.00
2013-3-18,33.3,30.9,29.1,14.0,7.1,4.0,53,33,29,30.35,30.29,21,6,22,0.00
2013-3-19,31.3,27.7,25.9,28.0,22.1,11.0,99,80,41,30.31,29.61,36,14,36,0.16
2013-3-20,33.8,27.9,20.9,31.0,23.9,18.0,99,84,67,29.69,29.50,36,10,37,0.00
2013-3-21,38.9,33.1,28.1,29.0,24.3,18.0,91,69,42,29.78,29.59,19,6,19,0.00
2013-3-22,39.9,33.1,25.1,29.0,23.1,16.0,91,67,41,29.59,29.53,26,8,26,0.00
2013-3-23,39.1,33.3,26.8,28.0,22.3,18.0,72,63,48,29.57,29.38,32,14,36,0.00
2013-3-24,43.1,38.0,32.9,32.0,28.1,24.0,76,66,55,29.76,29.53,27,7,27,0.00
2013-3-25,43.7,36.6,30.0,36.0,30.2,26.0,93,77,62,29.76,29.59,20,6,21,0.00
2013-3-26,47.4,38.5,30.1,33.0,29.0,24.0,83,68,50,29.67,29.51,25,5,25,0.00
2013-3-27,39.9,37.2,34.6,39.0,34.5,29.0,97,90,71,29.84,29.65,21,6,21,0.16
2013-3-28,48.7,41.5,36.0,39.0,34.5,31.0,92,77,56,29.93,29.83,14,5,15,0.00
2013-3-29,54.7,45.5,38.8,43.0,35.1,31.0,85,67,50,29.98,29.91,18,5,19,0.00
2013-3-30,54.4,44.3,34.8,38.0,29.4,18.0,84,57,30,30.07,29.97,19,5,19,0.00
2013-3-31,52.0,42.4,35.4,39.0,24.6,16.0,90,51,27,30.14,29.92,18,5,19,0.00
2013-4-1,47.0,42.3,36.9,46.0,40.1,33.0,100,92,77,29.92,29.47,36,9,36,1.79
2013-4-2,36.9,32.5,29.1,33.0,16.9,11.0,86,51,34,29.77,29.60,30,13,32,0.00
2013-4-3,39.4,33.1,29.0,21.0,16.5,14.0,69,49,38,29.95,29.73,38,16,41,0.06
2013-4-4,47.2,38.1,31.0,32.0,18.4,11.0,67,45,22,30.15,29.93,36,13,38,0.00
2013-4-5,49.9,43.4,37.7,36.0,32.3,28.0,77,64,43,29.97,29.66,30,9,30,0.00
2013-4-6,38.5,33.7,29.2,31.0,17.3,11.0,72,50,29,30.34,29.73,42,13,42,0.26
2013-4-7,42.8,36.2,26.6,39.0,23.4,8.0,84,59,39,30.36,29.96,32,7,32,0.04
2013-4-8,56.8,47.9,40.5,41.0,38.1,33.0,90,70,48,30.16,29.88,35,5,38,0.00
2013-4-9,41.1,40.0,37.7,41.0,38.4,33.0,100,93,77,30.17,29.92,14,4,14,0.22
2013-4-10,57.9,45.5,40.5,50.0,43.1,41.0,100,92,68,30.00,29.90,18,4,18,0.05
2013-4-11,51.0,43.4,36.4,44.0,28.4,18.0,97,57,35,30.20,29.88,18,3,20,0.00
2013-4-12,38.3,35.1,32.9,33.0,26.9,18.0,97,72,46,30.28,29.95,26,8,28,0.26
2013-4-13,43.6,38.3,34.1,41.0,36.3,33.0,98,93,85,29.94,29.77,22,5,23,0.15
2013-4-14,46.1,41.0,38.3,44.0,39.6,36.0,98,94,89,30.16,29.92,13,3,13,0.11
2013-4-15,49.9,41.2,37.0,44.0,38.3,35.0,98,89,71,30.45,30.16,18,4,18,0.00
2013-4-16,50.5,44.2,37.5,47.0,40.4,36.0,96,87,68,30.45,29.92,40,7,41,0.79
2013-4-17,56.7,50.1,43.4,47.5,36.5,26.0,94,61,39,30.37,29.91,36,8,36,0.07
2013-4-18,46.2,41.2,35.1,38.0,29.7,18.0,84,63,43,30.51,30.22,20,5,22,0.00
2013-4-19,65.0,56.3,46.3,59.5,51.8,32.0,97,85,56,30.22,29.73,40,9,40,0.01
2013-4-20,59.8,53.7,44.5,59.5,48.4,33.0,98,83,59,30.12,29.61,37,9,40,0.48
2013-4-21,50.9,43.4,36.0,33.0,27.4,18.0,69,53,37,30.71,30.12,26,5,27,0.00
2013-4-22,46.2,39.7,35.5,37.0,29.0,18.0,88,65,43,30.85,30.70,17,5,17,0.00
2013-4-23,42.8,39.1,34.8,42.0,36.4,31.0,98,89,80,30.71,30.24,20,7,20,0.15
2013-4-24,51.4,47.0,42.9,51.0,46.8,42.0,100,99,97,30.24,29.77,18,5,19,1.15
2013-4-25,63.6,53.0,45.6,54.0,46.1,35.0,98,79,51,30.30,29.82,38,7,38,0.25
2013-4-26,56.7,45.3,39.6,38.0,34.3,31.0,86,65,45,30.46,30.29,18,5,18,0.00
2013-4-27,59.9,47.1,35.9,38.0,33.1,26.0,92,61,33,30.47,30.31,17,4,18,0.00
2013-4-28,55.2,46.1,40.4,44.0,39.9,33.0,90,79,59,30.39,30.28,17,5,17,0.00
2013-4-29,65.0,50.1,40.5,43.0,38.1,28.0,92,67,25,30.33,30.26,18,4,18,0.00
2013-4-30,66.4,51.1,39.9,44.0,36.9,29.0,92,62,25,30.40,30.29,16,3,16,0.00
2013-5-1,66.1,49.6,40.2,45.0,38.8,26.0,89,69,31,30.50,30.39,16,3,16,0.00
2013-5-2,55.7,48.4,43.2,44.0,39.3,23.0,89,72,28,30.56,30.44,19,5,19,0.00
2013-5-3,60.2,48.6,41.5,45.0,40.0,37.0,87,73,56,30.58,30.41,17,6,17,0.00
2013-5-4,53.0,45.9,40.8,40.0,37.0,33.0,91,72,51,30.44,30.35,18,6,18,0.00
2013-5-5,62.7,50.0,39.5,44.0,38.9,36.0,94,68,41,30.36,30.27,17,4,17,0.00
2013-5-6,62.4,49.7,42.9,46.0,41.8,36.0,97,75,53,30.32,30.20,17,3,17,0.00
2013-5-7,71.8,53.2,44.4,56.0,49.3,43.0,100,89,51,30.21,30.13,22,4,22,0.00
2013-5-8,56.6,51.4,47.7,55.0,51.1,47.5,100,99,93,30.31,30.20,18,6,18,0.00
2013-5-9,56.1,52.4,49.3,56.0,52.5,49.0,100,100,99,30.20,29.97,14,5,15,0.43
2013-5-10,62.6,53.5,48.7,59.0,53.0,49.0,100,98,83,30.01,29.92,13,3,17,0.01
2013-5-11,65.0,54.7,48.0,60.0,53.5,48.0,100,96,83,30.00,29.75,30,7,30,0.21
2013-5-12,61.1,55.3,50.9,59.5,55.1,49.0,100,99,92,29.75,29.56,25,4,26,0.21
2013-5-13,54.8,50.8,47.3,49.0,38.6,32.0,95,65,43,30.01,29.72,28,9,28,0.03
2013-5-14,57.4,49.8,44.8,39.0,36.6,32.0,75,61,45,30.02,29.93,18,4,18,0.00
2013-5-15,61.1,51.6,42.2,47.5,35.9,28.0,97,58,28,30.02,29.74,25,7,25,0.32
2013-5-16,72.3,57.6,48.3,57.5,50.2,44.0,98,79,41,29.78,29.58,26,6,27,0.02
2013-5-17,59.2,53.9,49.9,46.0,42.0,38.0,79,65,52,30.21,29.77,24,4,24,0.00
2013-5-18,57.9,48.0,43.5,46.0,39.9,37.0,90,74,56,30.39,30.21,20,6,21,0.00
2013-5-19,52.4,48.6,43.3,50.0,45.0,39.0,98,88,69,30.43,30.30,18,5,18,0.00
2013-5-20,56.2,52.8,49.6,56.0,52.7,49.0,100,99,97,30.30,29.98,26,5,27,0.66
2013-5-21,52.7,50.0,49.0,51.0,49.7,48.0,100,99,90,30.11,30.03,17,4,18,0.06
2013-5-22,52.0,49.8,48.2,52.0,49.8,48.0,100,100,98,30.09,29.98,26,8,26,0.50
2013-5-23,67.0,55.7,47.9,65.0,55.2,48.0,100,98,92,30.02,29.85,29,7,30,0.01
2013-5-24,65.3,59.4,52.2,64.0,58.8,52.0,100,98,95,29.88,29.71,36,7,36,2.39
2013-5-25,52.7,51.6,49.6,53.0,51.3,50.0,100,99,97,29.86,29.72,23,9,23,0.55
2013-5-26,53.7,49.9,47.1,52.0,48.8,45.0,100,96,88,29.92,29.65,28,8,28,0.41
2013-5-27,65.5,52.9,45.9,47.5,43.2,39.0,92,72,47,30.19,29.92,29,8,29,0.00
2013-5-28,71.7,57.6,43.9,51.0,42.0,32.0,97,61,30,30.26,30.18,22,4,23,0.00
2013-5-29,54.5,51.3,48.6,54.5,50.8,41.0,100,98,64,30.27,30.03,14,5,14,0.40
2013-5-30,81.6,61.4,50.7,69.0,57.5,50.5,100,89,59,30.05,29.97,16,3,16,0.03
2013-5-31,89.0,73.8,58.4,66.3,61.9,57.5,99,70,40,30.06,29.88,22,6,22,0.00
2013-6-1,92.2,71.2,57.6,66.7,60.3,54.0,89,71,42,29.95,29.82,25,5,26,0.00
2013-6-2,82.9,67.3,55.6,69.0,60.0,53.5,94,78,58,29.84,29.71,37,6,37,0.00
2013-6-3,71.7,63.5,55.1,66.3,60.2,53.5,98,89,75,29.84,29.73,25,7,26,0.06
2013-6-4,66.3,62.2,57.2,61.5,47.6,41.0,97,60,43,30.02,29.77,31,9,31,0.00
2013-6-5,71.1,60.3,52.7,47.5,42.5,38.0,67,53,33,30.16,30.01,25,8,25,0.00
2013-6-6,65.6,57.8,51.4,51.0,45.6,38.0,93,65,44,30.25,30.16,19,4,19,0.00
2013-6-7,59.5,54.5,51.9,53.5,50.2,45.0,97,86,62,30.21,30.03,18,4,18,0.27
2013-6-8,64.2,57.8,52.7,62.0,56.4,52.0,100,95,80,30.04,29.66,23,5,23,2.24
2013-6-9,67.5,58.4,52.7,59.0,54.1,50.5,96,86,71,30.15,29.98,16,3,16,0.00
2013-6-10,74.3,62.6,55.6,59.0,54.5,51.0,98,76,48,30.25,30.09,16,4,18,0.00
2013-6-11,56.7,54.9,52.7,56.0,53.9,51.0,100,96,84,30.09,29.55,31,11,31,0.87
2013-6-12,60.4,56.5,53.1,59.5,56.0,53.0,100,98,93,29.72,29.49,22,5,22,0.07
2013-6-13,75.0,60.8,54.4,60.0,54.3,50.0,100,81,55,29.82,29.72,9,4,9,0.07
2013-6-14,60.2,56.8,53.4,54.0,50.4,45.0,95,80,63,29.77,29.70,9,3,9,0.00
2013-6-15,75.2,65.3,51.4,53.0,47.7,43.0,92,57,32,29.88,29.73,9,4,9,0.00
2013-6-16,76.9,66.1,54.9,54.0,48.5,43.0,91,55,34,29.92,29.75,9,4,9,0.00
2013-6-17,79.3,65.9,54.5,61.0,58.0,54.0,99,78,48,29.86,29.74,9,3,9,0.38
2013-6-18,71.5,64.4,59.3,59.0,54.2,50.0,92,71,49,29.97,29.83,9,4,9,0.00
2013-6-19,76.0,66.1,55.8,54.0,49.4,43.0,90,58,34,30.14,29.94,9,3,9,0.00
2013-6-20,77.4,64.7,52.8,54.0,49.4,45.0,92,61,35,30.27,30.14,9,3,9,0.00
2013-6-21,79.5,66.0,55.5,58.0,53.5,48.0,92,68,40,30.24,30.16,9,3,9,0.00
2013-6-22,70.8,61.6,56.2,62.0,55.6,52.0,94,82,57,30.23,30.13,9,2,9,0.00
2013-6-23,71.3,60.7,56.6,65.0,58.4,54.0,98,93,77,30.17,29.97,9,3,9,0.05
2013-6-24,89.3,71.8,62.1,72.0,64.6,59.0,97,80,49,29.98,29.80,9,3,9,0.05
2013-6-25,89.4,75.6,63.8,69.0,64.3,56.0,97,70,40,29.85,29.71,9,4,9,0.19
2013-6-26,74.2,64.8,59.3,72.0,63.6,57.0,100,97,89,29.93,29.72,9,3,9,0.05
2013-6-27,59.7,56.2,55.1,57.0,55.6,54.0,100,98,93,29.95,29.89,9,5,9,0.01
2013-6-28,67.7,60.6,57.1,67.0,60.4,57.0,100,100,100,29.93,29.63,9,4,9,1.87
2013-6-29,74.5,65.6,58.8,71.0,64.5,58.0,100,97,81,29.75,29.62,9,3,9,0.05
2013-6-30,77.7,68.0,60.2,72.0,65.9,59.0,100,94,80,29.97,29.73,9,4,9,0.00
2013-7-1,70.8,62.8,58.3,67.0,61.5,58.0,100,97,86,30.15,29.96,9,3,9,0.04
2013-7-2,69.5,62.4,60.0,69.0,61.5,59.0,100,98,95,30.26,30.13,9,3,9,0.68
2013-7-3,74.2,64.4,60.6,67.0,61.6,59.0,98,92,74,30.22,30.12,9,3,9,0.00
2013-7-4,89.7,76.9,64.1,73.0,68.1,63.0,100,77,50,30.17,30.06,9,3,9,0.00
2013-7-5,91.5,80.7,65.8,73.0,69.6,63.0,97,72,50,30.09,29.99,9,3,9,0.00
2013-7-6,90.2,80.0,66.3,73.0,69.0,63.0,95,72,53,30.02,29.90,9,3,9,0.00
2013-7-7,90.0,81.7,71.7,66.0,64.4,62.0,73,57,40,29.95,29.87,9,4,9,0.00
2013-7-8,79.6,68.9,61.3,66.0,60.2,54.0,90,75,56,30.11,29.91,9,3,9,0.08
2013-7-9,66.1,62.9,60.1,64.0,60.9,56.0,100,94,80,30.17,30.10,9,3,9,0.02
2013-7-10,68.8,61.8,59.2,68.0,61.2,59.0,100,99,97,30.14,29.82,9,4,9,0.01
2013-7-11,78.1,69.2,60.0,73.0,66.7,60.0,100,93,75,29.98,29.77,9,2,9,0.03
2013-7-12,80.2,70.3,62.7,69.0,59.9,56.0,91,71,50,30.25,29.97,9,3,9,0.00
2013-7-13,85.2,70.3,60.9,65.0,59.6,55.0,96,72,41,30.34,30.24,9,3,9,0.00
2013-7-14,87.5,73.7,59.1,68.0,62.2,56.0,95,70,48,30.31,30.17,9,3,9,0.00
2013-7-15,90.6,77.1,64.6,69.0,65.6,61.0,94,70,48,30.19,30.04,9,3,9,0.00
2013-7-16,93.6,77.3,69.2,72.0,63.4,56.0,73,63,44,30.21,30.07,9,4,9,0.00
2013-7-17,80.5,71.5,61.9,67.0,60.5,53.0,93,69,56,30.22,29.90,9,4,9,0.30
2013-7-18,89.9,76.6,67.3,70.0,64.1,48.0,95,69,36,30.02,29.91,9,4,9,0.00
2013-7-19,88.1,75.7,63.9,75.0,68.1,61.0,99,80,57,30.00,29.63,9,3,9,0.02
2013-7-20,88.1,79.7,69.9,72.0,67.7,61.0,91,68,52,29.79,29.59,9,3,9,0.30
2013-7-21,78.5,68.9,60.7,63.0,56.7,53.0,83,67,47,30.07,29.77,9,3,9,0.00
2013-7-22,69.1,63.3,58.5,60.0,57.2,54.0,95,82,68,30.09,29.99,9,4,9,0.00
2013-7-23,66.5,62.8,61.4,66.0,62.3,59.0,100,99,93,30.00,29.55,9,3,9,1.25
2013-7-24,77.0,67.4,59.8,72.0,64.3,56.0,100,91,73,29.98,29.57,9,4,9,0.00
2013-7-25,77.0,65.3,58.3,61.0,55.6,53.0,93,73,49,30.17,29.98,9,3,9,0.00
2013-7-26,67.7,65.8,64.3,67.0,65.1,61.0,100,99,90,30.13,29.85,8,2,9,2.23
2013-7-27,80.1,70.8,62.8,66.0,64.2,60.0,100,82,62,30.08,29.85,9,4,9,0.05
2013-7-28,71.8,65.6,60.8,71.0,63.5,59.0,100,94,82,30.12,30.05,9,3,9,0.31
2013-7-29,69.3,64.8,61.6,68.0,63.6,61.0,100,97,91,30.11,30.01,9,3,9,0.00
2013-7-30,82.2,69.2,62.7,71.0,64.0,59.0,100,86,51,30.10,30.00,9,3,9,0.00
2013-7-31,81.9,71.7,61.9,61.0,57.5,53.0,86,62,48,30.12,30.05,20,5,20,0.00
2013-8-1,72.3,65.2,60.3,68.0,61.9,56.0,99,91,64,30.08,29.95,17,5,17,0.00
2013-8-2,70.1,66.0,62.2,69.0,65.2,62.0,100,99,94,29.95,29.80,13,3,13,0.56
2013-8-3,75.2,65.3,58.0,72.0,62.1,58.0,100,91,68,29.86,29.73,23,3,23,0.05
2013-8-4,80.4,70.4,64.4,64.0,60.7,57.0,91,73,51,29.81,29.73,18,6,18,0.00
2013-8-5,72.7,66.3,60.6,58.0,55.0,47.0,84,68,54,30.01,29.80,26,9,26,0.00
2013-8-6,77.0,67.6,56.9,57.0,51.1,47.0,78,57,43,30.18,30.01,20,7,21,0.00
2013-8-7,77.3,65.5,57.2,61.0,54.5,47.0,93,71,40,30.24,30.17,14,3,14,0.00
2013-8-8,70.7,65.7,62.5,69.0,63.6,59.0,99,94,86,30.19,30.07,16,5,16,0.18
2013-8-9,74.2,70.4,65.2,73.0,69.1,64.0,100,97,91,30.08,29.70,27,6,27,2.02
2013-8-10,80.9,73.5,64.1,73.0,61.2,49.0,100,70,37,29.98,29.70,26,8,26,0.00
2013-8-11,76.7,68.0,59.4,54.0,52.1,49.0,75,58,43,30.04,29.96,22,10,23,0.00
2013-8-12,80.8,68.1,59.6,61.0,56.4,53.0,92,69,42,30.02,29.91,20,6,22,0.00
2013-8-13,77.5,63.7,59.9,69.0,61.9,56.0,100,95,73,29.95,29.75,17,4,17,0.00
2013-8-14,75.9,65.2,60.8,68.0,61.4,51.0,100,90,61,29.83,29.62,28,7,28,0.00
2013-8-15,75.3,66.5,58.3,54.0,52.2,50.0,78,61,45,30.10,29.83,25,10,25,0.00
2013-8-16,78.2,65.7,57.6,61.0,56.7,51.0,96,75,46,30.22,30.09,13,3,13,0.00
2013-8-17,81.0,68.6,59.8,64.0,58.1,51.0,97,72,45,30.29,30.21,17,3,17,0.00
2013-8-18,78.4,67.9,59.1,62.0,57.4,53.0,87,71,50,30.29,30.05,22,4,22,0.00
2013-8-19,83.6,73.0,60.4,65.0,62.0,58.0,97,71,53,30.05,29.85,22,7,22,0.00
2013-8-20,84.8,74.7,66.3,67.0,62.4,58.0,86,67,51,30.09,29.94,17,5,17,0.00
2013-8-21,86.7,71.8,60.5,66.0,60.9,57.0,95,71,48,30.15,30.00,19,5,19,0.00
2013-8-22,85.8,74.7,60.8,68.0,63.3,59.0,94,70,47,30.01,29.76,22,7,23,0.00
2013-8-23,79.0,69.9,60.6,67.0,58.8,51.0,91,70,47,30.16,29.75,23,5,23,0.00
2013-8-24,79.8,67.0,55.8,54.0,50.7,48.0,84,59,35,30.32,30.16,14,3,14,0.00
2013-8-25,79.0,66.6,55.5,58.0,52.7,46.0,92,64,36,30.37,30.19,16,4,16,0.00
2013-8-26,71.3,64.5,59.0,62.0,58.1,49.0,94,81,52,30.19,29.88,22,4,22,0.03
2013-8-27,78.6,67.0,60.5,69.0,62.9,59.0,97,88,70,29.94,29.87,14,3,14,0.00
2013-8-28,70.5,64.5,59.5,68.0,62.9,59.0,100,96,87,30.03,29.92,17,4,17,0.02
2013-8-29,68.5,64.1,58.1,66.0,59.9,55.0,97,87,73,30.15,30.03,18,5,18,0.08
2013-8-30,74.1,64.5,55.8,64.0,58.6,54.0,96,83,59,30.04,29.81,18,4,18,0.00
2013-8-31,75.1,67.8,62.7,72.0,66.1,61.0,100,96,82,29.88,29.80,28,4,28,0.25
2013-9-1,81.0,69.5,63.9,75.0,67.6,63.0,100,95,75,29.99,29.80,12,3,12,0.04
2013-9-2,66.9,64.7,63.1,67.0,64.2,63.0,100,100,99,30.03,29.79,24,5,24,2.23
2013-9-3,75.2,66.4,62.5,72.0,65.7,62.0,100,99,89,29.81,29.74,21,3,21,1.02
2013-9-4,78.4,71.0,64.0,69.0,62.9,57.0,100,78,51,29.91,29.74,24,7,24,0.00
2013-9-5,68.6,61.6,53.3,62.0,52.7,42.0,97,75,41,30.15,29.88,20,3,20,0.43
2013-9-6,67.0,61.9,53.1,50.0,44.0,38.0,71,53,40,30.22,30.06,26,7,26,0.00
2013-9-7,72.0,65.4,58.6,57.0,51.6,48.0,80,63,45,30.07,29.80,17,6,17,0.00
2013-9-8,65.3,60.4,50.9,59.0,52.2,41.0,94,76,55,30.05,29.70,34,8,34,0.33
2013-9-9,64.2,56.4,47.6,53.0,43.3,39.0,78,63,46,30.21,30.05,24,8,25,0.00
2013-9-10,66.6,62.0,58.8,62.0,56.9,52.0,99,85,75,30.15,30.09,25,5,25,0.00
2013-9-11,82.0,67.6,60.3,73.0,63.9,60.0,100,90,67,30.11,29.91,27,3,28,0.00
2013-9-12,78.1,69.0,61.2,71.0,66.1,59.0,98,92,70,30.02,29.70,34,8,34,0.40
2013-9-13,68.9,65.3,61.0,68.0,64.7,60.0,100,99,96,29.71,29.60,26,3,26,0.30
2013-9-14,71.9,63.8,57.3,63.0,59.2,54.0,99,86,68,30.03,29.69,16,5,18,0.00
2013-9-15,66.8,60.1,54.0,56.0,51.0,48.0,93,74,56,30.14,30.02,18,6,18,0.00
2013-9-16,65.5,57.8,46.7,57.0,51.9,38.0,96,82,69,30.26,29.98,22,4,23,0.00
2013-9-17,69.2,56.2,43.7,50.0,44.7,37.0,85,67,45,30.39,30.25,18,4,18,0.00
2013-9-18,71.8,61.8,50.6,51.0,46.7,43.0,86,59,38,30.31,30.08,24,7,25,0.00
2013-9-19,76.8,64.3,52.9,56.0,49.9,44.0,88,61,42,30.13,30.02,21,5,23,0.00
2013-9-20,74.3,61.5,53.6,57.0,52.5,45.0,95,74,52,30.13,30.04,14,4,14,0.00
2013-9-21,69.5,61.6,56.7,64.0,59.5,54.0,100,94,78,30.10,29.85,20,5,21,0.00
2013-9-22,69.2,64.8,57.3,67.0,62.3,52.0,98,93,80,29.86,29.63,30,8,31,1.31
2013-9-23,60.4,55.1,49.0,52.0,46.7,43.0,84,74,64,29.90,29.71,28,11,28,0.00
2013-9-24,55.6,52.7,49.4,49.0,45.6,42.0,87,77,69,29.89,29.80,25,11,26,0.07
2013-9-25,66.6,57.6,53.1,54.0,50.5,48.0,88,79,60,29.98,29.83,24,5,24,0.00
2013-9-26,65.2,58.8,53.3,54.0,52.5,50.0,91,81,64,30.13,29.97,18,4,19,0.00
2013-9-27,77.5,63.3,56.9,59.0,54.7,51.0,93,76,45,30.27,30.13,14,3,14,0.00
2013-9-28,70.9,59.3,53.6,59.0,53.9,49.0,98,84,58,30.38,30.27,12,2,13,0.00
2013-9-29,76.2,58.7,50.3,60.0,52.0,47.0,97,81,47,30.30,30.15,13,2,13,0.00
2013-9-30,61.1,56.8,52.5,59.0,54.6,51.0,99,93,83,30.19,30.00,12,3,12,0.00
2013-10-1,80.4,63.4,56.2,60.0,55.7,52.0,97,80,38,30.00,29.82,13,3,13,0.00
2013-10-2,78.6,66.4,56.3,62.0,57.2,50.0,100,76,51,29.87,29.72,22,6,22,0.00
2013-10-3,72.9,66.3,59.1,50.0,46.3,41.0,62,49,39,30.08,29.86,27,10,29,0.00
2013-10-4,71.7,61.6,53.2,51.0,47.0,41.0,84,60,41,30.12,30.02,16,3,16,0.00
2013-10-5,62.3,56.1,50.5,49.0,44.5,40.0,82,66,50,30.19,30.11,12,2,13,0.00
2013-10-6,60.4,51.5,47.6,49.0,38.9,35.0,91,63,44,30.34,30.18,15,5,15,0.04
2013-10-7,64.5,58.4,47.9,64.0,56.6,46.0,100,95,87,30.29,29.85,34,9,36,0.09
2013-10-8,66.0,59.0,49.0,65.0,48.8,38.0,100,71,52,30.42,29.84,29,8,29,0.37
2013-10-9,62.9,52.0,44.6,47.0,40.9,38.0,86,67,47,30.52,30.39,14,4,14,0.00
2013-10-10,66.0,53.0,45.9,52.0,45.9,39.0,92,78,52,30.40,30.22,10,2,10,0.00
2013-10-11,70.8,56.1,48.0,55.0,50.0,43.0,93,81,52,30.25,30.14,13,2,13,0.00
2013-10-12,57.6,52.6,46.4,53.0,47.5,42.0,94,84,65,30.47,30.25,16,5,17,0.00
2013-10-13,57.6,50.6,44.9,51.0,44.2,40.0,97,80,58,30.52,30.41,16,4,16,0.00
2013-10-14,63.0,54.8,48.2,50.0,45.6,42.0,84,72,54,30.42,30.28,16,4,16,0.00
2013-10-15,70.5,57.4,52.4,56.0,51.6,48.0,94,82,50,30.32,30.25,11,3,12,0.00
2013-10-16,58.1,56.0,52.9,58.0,55.2,51.0,100,98,93,30.28,29.92,18,4,18,0.14
2013-10-17,63.6,57.5,53.6,61.0,56.4,53.0,100,97,88,29.92,29.79,17,4,17,0.01
2013-10-18,66.0,59.1,52.9,63.0,54.3,47.0,100,86,65,29.83,29.59,30,8,30,0.23
2013-10-19,62.6,55.6,50.2,50.0,44.4,39.0,87,67,46,29.95,29.83,20,7,20,0.00
2013-10-20,62.2,56.9,51.1,56.0,45.0,33.0,98,68,37,29.94,29.70,27,8,28,0.02
2013-10-21,61.3,52.4,46.4,47.0,38.1,33.0,81,59,41,30.09,29.93,24,8,24,0.00
2013-10-22,59.4,56.1,50.0,55.0,51.0,45.0,92,83,76,30.05,29.71,22,6,23,0.01
2013-10-23,54.6,48.4,43.2,46.0,38.4,33.0,88,69,47,29.79,29.59,13,4,13,0.00
2013-10-24,49.8,45.9,40.5,39.0,32.0,26.0,78,59,42,29.79,29.59,29,9,29,0.00
2013-10-25,53.9,45.4,39.0,36.0,32.8,29.0,76,62,47,30.08,29.79,25,9,25,0.00
2013-10-26,50.6,43.7,36.2,41.0,33.4,26.0,88,67,45,30.13,29.90,21,6,23,0.08
2013-10-27,55.2,47.3,42.3,44.0,39.3,32.0,93,75,59,29.98,29.80,28,6,28,0.06
2013-10-28,54.3,45.0,37.9,40.0,33.4,29.0,73,63,50,30.34,29.98,35,10,35,0.00
2013-10-29,51.0,40.0,32.3,33.0,27.4,18.0,76,61,35,30.47,30.33,17,4,17,0.00
2013-10-30,49.8,41.0,34.1,40.0,30.8,24.0,93,68,40,30.37,30.18,19,4,19,0.00
2013-10-31,60.3,46.9,33.5,58.0,41.2,28.0,97,81,60,30.29,29.82,29,6,29,0.50
2013-11-1,65.5,62.5,58.9,63.0,58.5,54.0,96,88,74,29.84,29.38,56,12,56,1.51
2013-11-2,62.9,55.8,49.1,54.0,47.6,43.0,92,75,52,29.79,29.54,23,5,26,0.00
2013-11-3,49.6,39.5,34.6,44.0,28.7,23.0,89,65,45,30.40,29.76,26,4,26,0.05
2013-11-4,43.3,36.8,31.4,28.0,24.4,23.0,72,60,46,30.73,30.39,22,4,22,0.00
2013-11-5,46.7,40.0,31.5,38.0,31.8,24.0,88,71,52,30.76,30.54,14,3,14,0.00
2013-11-6,53.7,48.7,41.2,50.0,42.9,36.0,87,80,75,30.54,30.02,25,5,27,0.01
2013-11-7,60.5,54.1,41.7,57.0,50.5,36.0,96,88,76,30.02,29.64,34,10,34,0.25
2013-11-8,44.4,39.8,36.5,36.0,28.7,26.0,79,63,51,29.92,29.73,26,11,26,0.00
2013-11-9,42.9,38.6,33.9,29.0,25.6,23.0,66,59,48,30.14,29.90,29,9,29,0.00
2013-11-10,49.0,42.1,34.3,45.0,37.5,24.0,96,84,63,30.11,29.71,23,5,23,0.10
2013-11-11,47.0,41.6,38.8,40.0,34.9,31.0,96,76,60,30.00,29.72,29,8,29,0.00
2013-11-12,47.6,36.1,28.0,39.0,26.0,18.0,83,66,58,30.06,29.83,33,10,33,0.01
2013-11-13,36.3,30.2,26.5,24.0,18.8,14.0,71,61,48,30.17,30.04,25,10,33,0.00
2013-11-14,45.6,38.6,28.9,32.0,28.0,18.0,77,64,51,30.11,29.97,17,6,22,0.00
2013-11-15,53.1,45.0,38.4,41.0,33.8,28.0,92,66,38,30.20,30.08,16,3,16,0.00
2013-11-16,50.4,42.8,37.5,46.0,39.9,36.0,99,90,73,30.37,30.21,11,2,11,0.00
2013-11-17,52.6,48.0,39.6,52.0,46.4,40.0,100,95,84,30.41,30.05,17,4,17,0.05
2013-11-18,62.0,56.8,50.4,60.0,52.4,41.0,100,87,65,30.05,29.51,37,9,37,1.12
2013-11-19,51.8,39.9,34.5,42.0,27.6,21.0,70,60,50,30.13,29.57,41,16,41,0.00
2013-11-20,39.2,34.4,30.2,24.0,20.2,14.0,66,54,44,30.62,30.11,37,10,39,0.00
2013-11-21,49.1,38.2,28.8,31.0,19.7,14.0,67,47,25,30.63,30.36,17,6,17,0.00
2013-11-22,43.6,39.2,35.7,33.0,28.7,21.0,82,65,39,30.36,29.78,15,3,15,0.00
2013-11-23,41.2,36.7,30.0,40.0,25.8,16.0,95,65,43,29.78,29.61,42,14,44,0.09
2013-11-24,30.1,24.1,20.8,23.0,13.3,8.0,72,60,52,29.87,29.56,47,22,47,0.19
2013-11-25,28.9,23.1,18.0,16.0,8.8,4.0,64,51,36,30.32,29.86,43,14,43,0.02
2013-11-26,39.2,35.2,28.3,37.0,29.9,14.0,93,80,54,30.35,30.23,18,4,18,0.02
2013-11-27,59.9,53.1,38.6,59.0,52.4,37.0,100,98,91,30.23,29.14,46,10,46,3.47
2013-11-28,46.7,33.1,21.5,45.0,24.1,11.0,96,69,47,30.35,29.23,44,16,44,0.04
2013-11-29,27.8,22.7,18.2,18.0,13.9,11.0,78,66,56,30.73,30.34,25,8,25,0.00
2013-11-30,35.2,24.0,16.8,28.0,17.4,11.0,89,73,48,30.82,30.46,16,4,16,0.00
2013-12-1,42.4,38.8,33.5,41.0,36.4,28.0,99,90,73,30.47,30.14,21,3,22,0.36
2013-12-2,47.2,44.1,39.0,46.0,43.5,39.0,100,97,93,30.14,29.96,24,7,24,0.50
2013-12-3,44.4,43.1,41.6,44.0,43.1,41.0,100,100,95,29.96,29.80,25,3,25,0.04
2013-12-4,43.9,38.0,32.1,41.0,32.3,28.0,95,80,66,30.23,29.80,30,12,32,0.00
2013-12-5,53.7,40.2,30.1,53.0,37.6,28.0,100,90,84,30.32,29.95,24,4,24,0.03
2013-12-6,56.4,48.1,39.2,56.0,45.9,32.0,100,93,76,30.11,29.88,21,6,21,0.05
2013-12-7,39.2,33.4,25.5,35.0,23.1,14.0,95,65,48,30.37,30.06,30,10,30,0.00
2013-12-8,27.7,24.6,21.8,18.0,13.6,8.0,72,59,50,30.62,30.36,28,10,28,0.00
2013-12-9,39.1,29.2,22.4,39.0,23.7,8.0,99,80,52,30.59,29.82,29,12,29,0.09
2013-12-10,40.1,34.1,23.7,38.0,30.9,16.0,100,87,65,29.88,29.72,30,7,30,0.01
2013-12-11,29.6,25.0,19.3,21.0,15.1,11.0,82,64,48,30.11,29.85,29,10,29,0.00
2013-12-12,21.2,16.1,10.8,16.0,7.4,0.0,80,64,48,30.23,29.99,22,8,32,0.00
2013-12-13,23.4,18.4,7.3,14.0,8.2,0.0,78,61,37,30.37,29.87,38,12,38,0.12
2013-12-14,13.5,8.8,2.0,11.0,2.6,-6.0,91,70,50,30.64,30.35,29,7,29,0.00
2013-12-15,32.8,22.1,10.6,33.0,21.5,4.0,100,95,68,30.45,29.33,44,13,44,0.60
2013-12-16,24.1,18.6,6.0,21.0,12.2,0.0,93,73,49,30.18,29.62,37,12,37,0.00
2013-12-17,21.4,11.3,0.9,21.0,7.0,-6.0,96,76,63,30.34,30.08,23,6,23,0.00
2013-12-18,27.7,25.0,21.4,28.0,24.2,16.0,99,94,79,30.08,29.80,25,7,25,0.00
2013-12-19,34.3,30.8,22.4,31.0,26.2,18.0,86,81,76,30.11,29.93,20,6,20,0.00
2013-12-20,43.9,36.9,31.9,40.0,34.6,29.0,99,91,80,30.19,29.94,17,2,17,0.15
2013-12-21,40.1,36.5,32.0,40.0,36.6,32.0,100,99,98,30.01,29.85,12,3,12,0.15
2013-12-22,38.6,36.0,34.5,39.0,35.9,33.0,100,98,97,30.13,29.91,22,5,22,0.52
2013-12-23,38.6,36.9,33.8,39.0,37.0,35.0,100,100,100,30.15,29.99,15,2,15,0.08
2013-12-24,38.3,29.1,15.0,38.0,27.7,14.0,100,92,85,30.16,30.05,24,6,24,0.00
2013-12-25,21.3,15.4,10.6,18.0,13.3,8.0,92,86,82,30.58,30.13,27,8,27,0.00
2013-12-26,39.7,27.6,13.0,39.0,26.6,11.0,99,94,83,30.56,30.06,22,4,22,0.14
2013-12-27,31.3,27.6,23.0,29.0,24.8,21.0,96,88,82,30.20,30.07,25,8,25,0.00
2013-12-28,38.2,33.0,22.3,35.0,29.0,18.0,89,85,80,30.19,29.94,24,7,24,0.03
2013-12-29,39.8,37.6,33.8,40.0,36.7,32.0,100,96,84,30.08,29.51,18,4,19,0.71
2013-12-30,37.4,26.8,9.5,37.0,25.1,8.0,100,91,77,30.16,29.46,33,10,33,0.01
2013-12-31,16.9,9.4,3.9,14.0,6.6,0.0,89,83,74,30.20,30.06,27,5,27,0.00
2014-1-1,20.3,14.0,7.4,14.0,9.4,4.0,89,77,61,30.45,30.11,26,9,27,0.00
2014-1-2,7.8,-0.2,-3.9,4.0,-0.9,-6.0,89,87,81,30.53,30.03,28,9,28,0.00